Location: Chinna Viriv?da
(16.5281°N, 81.0493°E)
Time: 15:42:19
(UTC+00:00)

Cosmos 1869 Rocket - Pass Details

Date: 14 April 2026
Orbit: 598 x 625 km, 82.5° (Epoch: 11 May)

Event Time Altitude Azimuth Distance (km) Brightness Sun altitude
Exits shadow 14:42:30 62° 271° (W) 687 3.9 -26.6°
Maximum altitude 14:42:33 62° 275° (W) 686 3.9 -26.6°
Drops below altitude 10° 14:46:51 10° 356° (N) 1,968 6.4 -27.6°
Sets 14:49:06 0° 360° (N) 2,878 7.2 -28.1°
